• Join FlightAware (Why Join?)
  • Login
  • US Flag GB Flag 
09:46 EDT


 

Airport Tracker/Info


-or-


 

Live Flight TrackerFlight Track Log ✈ RPA3321 ✈ 08-May-2013 ✈ KALB - KDCA

Flight Track Log - Related Links

Times and Time Zones

All times are in EDT time to prevent confusion due to time zone crossing. See the RPA3321 flight status page for this flight to view local times or setup timezone preferences in your user account.

Time Position Orientation Groundspeed Altitude Reporting Facility
EDT Latitude Longitude Course Direction KTS MPH feet Rate Location/Type
05:31 42.7278 -73.8081 118° Southeast 152 175 1,600  Level Boston Center
05:32 42.7125 -73.8586 248° West 229 264 4,300 2,760 Climbing Boston Center
05:33 42.7536 -73.9075 319° Northwest 260 299 7,300 3,360 Climbing Boston Center
05:34 42.4513 -74.0660 171° South  Level Estimated
05:34 42.7964 -73.9822 308° West 253 291 10,800  Level Boston Center
05:35 42.3768 -74.1316 170° South  Level Estimated
05:35 42.7578 -74.0575 235° Southwest 212 244 12,600  Level Boston Center
05:36 42.3351 -74.0254 118° Southeast  Level FlightAware Approximate
05:36 42.6728 -74.0214 163° South 169 194 15,400  Level Boston Center
05:37 42.5714 -73.9708 160° South 284 327 18,600 2,700 Climbing Boston Center
05:38 42.4906 -73.9353 162° South 313 360 20,900 2,400 Climbing Boston Center
05:39 42.3975 -73.8908 161° South 345 397 23,500 2,520 Climbing Boston Center
05:40 42.2875 -73.8406 161° South 367 422 26,000 2,160 Climbing Boston Center
05:41 42.1881 -73.7936 161° South 377 434 27,900 960 Climbing Boston Center
05:42 42.0842 -73.7772 173° South 377 434 28,000  Climbing Boston Center
05:43 41.9814 -73.8225 198° South 371 427 28,000 120 Level Boston Center
05:44 41.8828 -73.8733 201° Southwest 371 427 28,300 900 Climbing Boston Center
05:45 41.7967 -73.9161 200° South 379 436 29,900 1,680 Climbing Boston Center
05:46 41.6961 -73.9636 199° South 379 436 31,700 660 Climbing Boston Center
05:48 41.4947 -74.0614 200° South 381 438 32,000 60 Climbing New York Center
05:49 41.3936 -74.1092 200° South 381 438 32,000  Level New York Center
05:50 41.2964 -74.1594 201° Southwest 381 438 32,000  Level New York Center
05:51 41.1844 -74.2089 198° South 381 438 32,000  Level New York Center
05:52 41.0869 -74.2617 202° Southwest 381 438 32,000  Level New York Center
05:53 41.0069 -74.3619 223° Southwest 381 438 32,000  Level New York Center
05:54 40.9269 -74.4567 222° Southwest 388 447 32,000  Level New York Center
05:55 40.8450 -74.5511 221° Southwest 393 452 32,000 -60 Level New York Center
05:56 40.7647 -74.6453 222° Southwest 393 452 31,900  Descending New York Center
05:57 40.6844 -74.7419 222° Southwest 393 452 32,000  Climbing New York Center
05:58 40.6000 -74.8381 221° Southwest 388 447 32,000 -240 Level New York Center
05:59 40.5217 -74.9317 222° Southwest 393 452 31,600 -1,200 Descending New York Center
06:00 40.4369 -75.0247 220° Southwest 393 452 29,600 -2,040 Descending New York Center
06:01 40.3606 -75.1208 224° Southwest 393 452 27,500 -2,160 Descending New York Center
06:02 40.2800 -75.2111 221° Southwest 388 447 25,300 -2,100 Descending New York Center
06:03 40.2039 -75.2986 221° Southwest 382 440 23,300 -1,680 Descending New York Center
06:04 40.1297 -75.3833 221° Southwest 370 426 22,000 -720 Descending New York Center
06:05 40.0700 -75.4689 228° Southwest 358 412 22,000  Level New York Center
06:06 40.0017 -75.5619 226° Southwest 358 412 22,000  Level New York Center
06:07 39.9353 -75.6547 227° Southwest 358 412 22,000  Level New York Center
06:08 39.8744 -75.7614 233° Southwest 364 419 22,000 -1,080 Level New York Center
06:10 39.8015 -75.8849 232° Southwest  Level FlightAware Approximate
06:12 39.6333 -76.2333 213° Southwest 339 390 16,500  Level Potomac TRACON
06:13 39.5833 -76.3000 226° Southwest 331 381 14,900 -1,800 Descending Potomac TRACON
06:14 39.5000 -76.3667 212° Southwest 315 362 13,100 -1,800 Descending Potomac TRACON
06:15 39.4333 -76.4333 218° Southwest 304 350 11,300 -1,560 Descending Potomac TRACON
06:16 39.3667 -76.5000 218° Southwest 298 343 10,000 -660 Descending Potomac TRACON
06:17 39.3678 -76.4799 213° Southwest  Level FlightAware Approximate
06:17 39.3000 -76.5500 210° Southwest 300 345 10,000  Level Potomac TRACON
06:18 39.2909 -76.5451 213° Southwest  Level FlightAware Approximate
06:18 39.2333 -76.6000 210° Southwest 279 321 10,000  Level Potomac TRACON
06:19 39.1667 -76.6667 218° Southwest 285 328 10,000  Level Potomac TRACON
06:20 39.1167 -76.7333 226° Southwest 290 334 10,000 -480 Level Potomac TRACON
06:21 39.0500 -76.8000 218° Southwest 283 326 9,100 -1,440 Descending Potomac TRACON
06:22 39.0000 -76.8667 226° Southwest 278 320 7,300 -1,740 Descending Potomac TRACON
06:23 38.9500 -76.9167 218° Southwest 268 308 6,000 -720 Descending Potomac TRACON
06:24 38.9000 -76.9500 207° Southwest 195 224 6,000  Level Potomac TRACON
06:25 38.8500 -76.9500 180° South 191 220 6,000 -60 Level Potomac TRACON
06:26 38.8000 -76.9500 180° South 190 219 5,900 -720 Descending Potomac TRACON
06:27 38.7500 -76.9500 180° South 178 205 4,700 -1,320 Descending Potomac TRACON
06:28 38.7000 -76.9333 165° South 181 208 3,400 -1,320 Descending Potomac TRACON
06:29 38.6833 -76.9833 247° West 188 216 2,200 -960 Descending Potomac TRACON
06:30 38.7333 -77.0333 322° Northwest 193 222 1,600 -540 Descending Potomac TRACON
06:31 38.7833 -77.0333 360° North 181 208 1,200 -600 Descending Potomac TRACON
06:32 38.8167 -77.0333 360° North 127 146 500 -720 Descending Potomac TRACON